Time,TemperatureF,DewpointF,PressureIn,WindDirection,WindDirectionDegrees,WindSpeedMPH,WindSpeedGustMPH,Humidity,HourlyPrecipIn,Conditions,Clouds,dailyrainin,SoftwareType,DateUTC
2013-08-26 00:00:00,86.0,65.3,30.09,North,0,0.0,0.0,50,0.00,,,0.00,WUHU216HW,2013-08-26 05:00:00,
2013-08-26 00:30:00,84.6,65.6,30.10,North,0,0.0,0.0,53,0.00,,,0.00,WUHU216HW,2013-08-26 05:30:00,
2013-08-26 00:35:00,84.6,65.6,30.10,North,0,0.0,0.0,53,0.00,,,0.00,WUHU216HW,2013-08-26 05:35:00,
2013-08-26 01:00:00,83.5,65.6,30.10,North,0,0.0,0.0,55,0.00,,,0.00,WUHU216HW,2013-08-26 06:00:00,
2013-08-26 01:06:00,83.5,65.6,30.10,North,0,0.0,0.0,55,0.00,,,0.00,WUHU216HW,2013-08-26 06:06:00,
2013-08-26 01:30:00,82.8,66.4,30.10,North,0,0.0,0.0,58,0.00,,,0.00,WUHU216HW,2013-08-26 06:30:00,
2013-08-26 01:35:00,82.8,66.4,30.10,North,0,0.0,0.0,58,0.00,,,0.00,WUHU216HW,2013-08-26 06:35:00,
2013-08-26 02:00:00,82.3,67.4,30.10,North,0,0.0,0.0,61,0.00,,,0.00,WUHU216HW,2013-08-26 07:00:00,
2013-08-26 02:05:00,82.3,67.4,30.10,North,0,0.0,0.0,61,0.00,,,0.00,WUHU216HW,2013-08-26 07:05:00,
2013-08-26 02:30:00,81.2,67.3,30.09,North,0,0.0,0.0,63,0.00,,,0.00,WUHU216HW,2013-08-26 07:30:00,
2013-08-26 02:35:00,81.2,67.3,30.09,North,0,0.0,0.0,63,0.00,,,0.00,WUHU216HW,2013-08-26 07:35:00,
2013-08-26 03:00:00,80.8,68.0,30.10,North,0,0.0,0.0,65,0.00,,,0.00,WUHU216HW,2013-08-26 08:00:00,
2013-08-26 03:05:00,80.8,68.0,30.10,North,0,0.0,0.0,65,0.00,,,0.00,WUHU216HW,2013-08-26 08:05:00,
2013-08-26 03:30:00,80.1,67.7,30.10,North,0,0.0,0.0,66,0.00,,,0.00,WUHU216HW,2013-08-26 08:30:00,
2013-08-26 03:35:00,80.1,67.7,30.10,North,0,0.0,0.0,66,0.00,,,0.00,WUHU216HW,2013-08-26 08:35:00,
2013-08-26 04:00:00,79.4,67.4,30.10,North,0,0.0,0.0,67,0.00,,,0.00,WUHU216HW,2013-08-26 09:00:00,
2013-08-26 04:05:00,79.4,67.4,30.10,North,0,0.0,0.0,67,0.00,,,0.00,WUHU216HW,2013-08-26 09:05:00,
2013-08-26 04:30:00,78.8,67.8,30.10,North,0,0.0,0.0,69,0.00,,,0.00,WUHU216HW,2013-08-26 09:30:00,
2013-08-26 04:35:00,78.8,67.8,30.10,North,0,0.0,0.0,69,0.00,,,0.00,WUHU216HW,2013-08-26 09:35:00,
2013-08-26 05:00:00,78.1,68.0,30.11,North,0,0.0,0.0,71,0.00,,,0.00,WUHU216HW,2013-08-26 10:00:00,
2013-08-26 05:05:00,78.1,68.0,30.11,North,0,0.0,0.0,71,0.00,,,0.00,WUHU216HW,2013-08-26 10:05:00,
2013-08-26 05:30:00,77.4,67.3,30.11,North,0,0.0,0.0,71,0.00,,,0.00,WUHU216HW,2013-08-26 10:30:00,
2013-08-26 05:35:00,77.4,67.3,30.11,North,0,0.0,0.0,71,0.00,,,0.00,WUHU216HW,2013-08-26 10:35:00,
2013-08-26 06:00:00,76.9,68.0,30.11,North,0,0.0,0.0,74,0.00,,,0.00,WUHU216HW,2013-08-26 11:00:00,
2013-08-26 06:05:00,76.9,68.0,30.11,North,0,0.0,0.0,74,0.00,,,0.00,WUHU216HW,2013-08-26 11:05:00,
2013-08-26 06:30:00,76.5,68.0,30.12,North,0,0.0,0.0,75,0.00,,,0.00,WUHU216HW,2013-08-26 11:30:00,
2013-08-26 06:35:00,76.5,68.0,30.12,North,0,0.0,0.0,75,0.00,,,0.00,WUHU216HW,2013-08-26 11:35:00,
2013-08-26 07:00:00,76.1,67.7,30.13,North,0,0.0,0.0,75,0.00,,,0.00,WUHU216HW,2013-08-26 12:00:00,
2013-08-26 07:05:00,76.1,67.7,30.13,North,0,0.0,0.0,75,0.00,,,0.00,WUHU216HW,2013-08-26 12:05:00,
2013-08-26 07:30:00,76.1,68.4,30.13,North,0,0.0,0.0,77,0.00,,,0.00,WUHU216HW,2013-08-26 12:30:00,
2013-08-26 07:35:00,76.1,68.4,30.13,North,0,0.0,0.0,77,0.00,,,0.00,WUHU216HW,2013-08-26 12:35:00,
2013-08-26 08:00:00,77.0,69.7,30.14,North,0,0.0,0.0,78,0.00,,,0.00,WUHU216HW,2013-08-26 13:00:00,
2013-08-26 08:05:00,77.0,69.7,30.14,North,0,0.0,0.0,78,0.00,,,0.00,WUHU216HW,2013-08-26 13:05:00,
2013-08-26 08:30:00,78.5,69.8,30.14,North,0,0.0,0.0,75,0.00,,,0.00,WUHU216HW,2013-08-26 13:30:00,
2013-08-26 08:35:00,78.5,69.8,30.14,North,0,0.0,0.0,75,0.00,,,0.00,WUHU216HW,2013-08-26 13:35:00,
2013-08-26 09:00:00,79.9,69.7,30.14,North,0,0.0,0.0,71,0.00,,,0.00,WUHU216HW,2013-08-26 14:00:00,
2013-08-26 09:05:00,79.9,69.7,30.14,North,0,0.0,0.0,71,0.00,,,0.00,WUHU216HW,2013-08-26 14:05:00,
2013-08-26 09:30:00,81.4,69.3,30.14,North,0,0.0,0.0,67,0.00,,,0.00,WUHU216HW,2013-08-26 14:30:00,
2013-08-26 09:35:00,81.4,69.3,30.14,North,0,0.0,0.0,67,0.00,,,0.00,WUHU216HW,2013-08-26 14:35:00,
2013-08-26 10:00:00,82.1,69.5,30.14,North,0,0.0,0.0,66,0.00,,,0.00,WUHU216HW,2013-08-26 15:00:00,
2013-08-26 10:05:00,82.1,69.5,30.14,North,0,0.0,0.0,66,0.00,,,0.00,WUHU216HW,2013-08-26 15:05:00,
2013-08-26 10:30:00,83.5,70.0,30.14,North,0,0.0,0.0,64,0.00,,,0.00,WUHU216HW,2013-08-26 15:30:00,
2013-08-26 10:35:00,83.5,70.0,30.14,North,0,0.0,0.0,64,0.00,,,0.00,WUHU216HW,2013-08-26 15:35:00,
2013-08-26 11:00:00,84.8,69.8,30.15,North,0,0.0,0.0,61,0.00,,,0.00,WUHU216HW,2013-08-26 16:00:00,
2013-08-26 11:05:00,84.8,69.8,30.15,North,0,0.0,0.0,61,0.00,,,0.00,WUHU216HW,2013-08-26 16:05:00,
2013-08-26 11:30:00,85.9,68.9,30.14,North,0,0.0,0.0,57,0.00,,,0.00,WUHU216HW,2013-08-26 16:30:00,
2013-08-26 11:35:00,85.9,68.9,30.14,North,0,0.0,0.0,57,0.00,,,0.00,WUHU216HW,2013-08-26 16:35:00,
2013-08-26 12:00:00,86.9,68.8,30.14,North,0,0.0,0.0,55,0.00,,,0.00,WUHU216HW,2013-08-26 17:00:00,
2013-08-26 12:05:00,86.9,68.8,30.14,North,0,0.0,0.0,55,0.00,,,0.00,WUHU216HW,2013-08-26 17:05:00,
2013-08-26 12:30:00,88.6,68.1,30.13,North,0,0.0,0.0,51,0.00,,,0.00,WUHU216HW,2013-08-26 17:30:00,
2013-08-26 12:35:00,88.6,68.1,30.13,North,0,0.0,0.0,51,0.00,,,0.00,WUHU216HW,2013-08-26 17:35:00,
2013-08-26 13:00:00,89.3,68.8,30.12,North,0,0.0,0.0,51,0.00,,,0.00,WUHU216HW,2013-08-26 18:00:00,
2013-08-26 13:05:00,89.3,68.8,30.12,North,0,0.0,0.0,51,0.00,,,0.00,WUHU216HW,2013-08-26 18:05:00,
2013-08-26 13:30:00,90.4,68.0,30.10,North,0,0.0,0.0,48,0.00,,,0.00,WUHU216HW,2013-08-26 18:30:00,
2013-08-26 13:35:00,90.4,68.0,30.10,North,0,0.0,0.0,48,0.00,,,0.00,WUHU216HW,2013-08-26 18:35:00,
2013-08-26 14:00:00,91.6,66.5,30.08,North,0,0.0,0.0,44,0.00,,,0.00,WUHU216HW,2013-08-26 19:00:00,
2013-08-26 14:05:00,91.6,66.5,30.08,North,0,0.0,0.0,44,0.00,,,0.00,WUHU216HW,2013-08-26 19:05:00,
2013-08-26 14:30:00,93.2,65.3,30.07,North,0,0.0,0.0,40,0.00,,,0.00,WUHU216HW,2013-08-26 19:30:00,
2013-08-26 14:35:00,93.2,65.3,30.07,North,0,0.0,0.0,40,0.00,,,0.00,WUHU216HW,2013-08-26 19:35:00,
2013-08-26 15:00:00,94.1,64.5,30.06,North,0,0.0,0.0,38,0.00,,,0.00,WUHU216HW,2013-08-26 20:00:00,
2013-08-26 15:05:00,94.1,64.5,30.06,North,0,0.0,0.0,38,0.00,,,0.00,WUHU216HW,2013-08-26 20:05:00,
2013-08-26 15:30:00,94.7,65.0,30.05,North,0,0.0,0.0,38,0.00,,,0.00,WUHU216HW,2013-08-26 20:30:00,
2013-08-26 15:35:00,94.7,65.0,30.05,North,0,0.0,0.0,38,0.00,,,0.00,WUHU216HW,2013-08-26 20:35:00,
2013-08-26 16:00:00,95.4,64.0,30.04,North,0,0.0,0.0,36,0.00,,,0.00,WUHU216HW,2013-08-26 21:00:00,
2013-08-26 16:05:00,95.4,64.0,30.04,North,0,0.0,0.0,36,0.00,,,0.00,WUHU216HW,2013-08-26 21:05:00,
2013-08-26 16:30:00,95.2,63.1,30.04,North,0,0.0,0.0,35,0.00,,,0.00,WUHU216HW,2013-08-26 21:30:00,
2013-08-26 16:35:00,95.2,63.1,30.04,North,0,0.0,0.0,35,0.00,,,0.00,WUHU216HW,2013-08-26 21:35:00,
2013-08-26 17:00:00,94.5,63.3,30.03,North,0,0.0,0.0,36,0.00,,,0.00,WUHU216HW,2013-08-26 22:00:00,
2013-08-26 17:05:00,94.5,63.3,30.03,North,0,0.0,0.0,36,0.00,,,0.00,WUHU216HW,2013-08-26 22:05:00,
2013-08-26 17:30:00,93.8,64.2,30.04,North,0,0.0,0.0,38,0.00,,,0.00,WUHU216HW,2013-08-26 22:30:00,
2013-08-26 17:35:00,93.8,64.2,30.04,North,0,0.0,0.0,38,0.00,,,0.00,WUHU216HW,2013-08-26 22:35:00,
2013-08-26 18:00:00,93.4,64.7,30.04,North,0,0.0,0.0,39,0.00,,,0.00,WUHU216HW,2013-08-26 23:00:00,
2013-08-26 18:05:00,93.4,64.7,30.04,North,0,0.0,0.0,39,0.00,,,0.00,WUHU216HW,2013-08-26 23:05:00,
2013-08-26 18:30:00,92.2,63.5,30.04,North,0,0.0,0.0,39,0.00,,,0.00,WUHU216HW,2013-08-26 23:30:00,
2013-08-26 18:35:00,92.2,63.5,30.04,North,0,0.0,0.0,39,0.00,,,0.00,WUHU216HW,2013-08-26 23:35:00,
2013-08-26 19:00:00,91.4,62.9,30.04,North,0,0.0,0.0,39,0.00,,,0.00,WUHU216HW,2013-08-27 00:00:00,
2013-08-26 19:05:00,91.4,62.9,30.04,North,0,0.0,0.0,39,0.00,,,0.00,WUHU216HW,2013-08-27 00:05:00,
2013-08-26 19:30:00,90.7,63.1,30.04,North,0,0.0,0.0,40,0.00,,,0.00,WUHU216HW,2013-08-27 00:30:00,
2013-08-26 19:35:00,90.7,63.1,30.04,North,0,0.0,0.0,40,0.00,,,0.00,WUHU216HW,2013-08-27 00:35:00,
2013-08-26 20:00:00,89.6,62.7,30.04,North,0,0.0,0.0,41,0.00,,,0.00,WUHU216HW,2013-08-27 01:00:00,
2013-08-26 20:05:00,89.6,62.7,30.04,North,0,0.0,0.0,41,0.00,,,0.00,WUHU216HW,2013-08-27 01:05:00,
2013-08-26 20:30:00,88.2,66.7,30.05,North,0,0.0,0.0,49,0.00,,,0.00,WUHU216HW,2013-08-27 01:30:00,
2013-08-26 20:35:00,88.2,66.7,30.05,North,0,0.0,0.0,49,0.00,,,0.00,WUHU216HW,2013-08-27 01:35:00,
2013-08-26 21:00:00,84.4,68.0,30.05,North,0,0.0,0.0,58,0.00,,,0.00,WUHU216HW,2013-08-27 02:00:00,
2013-08-26 21:05:00,84.4,68.0,30.05,North,0,0.0,0.0,58,0.00,,,0.00,WUHU216HW,2013-08-27 02:05:00,
2013-08-26 21:30:00,83.2,68.3,30.06,North,0,0.0,0.0,61,0.00,,,0.00,WUHU216HW,2013-08-27 02:30:00,
2013-08-26 21:35:00,83.2,68.3,30.06,North,0,0.0,0.0,61,0.00,,,0.00,WUHU216HW,2013-08-27 02:35:00,
2013-08-26 22:00:00,82.3,67.9,30.06,North,0,0.0,0.0,62,0.00,,,0.00,WUHU216HW,2013-08-27 03:00:00,
2013-08-26 22:05:00,82.3,67.9,30.06,North,0,0.0,0.0,62,0.00,,,0.00,WUHU216HW,2013-08-27 03:05:00,
2013-08-26 22:30:00,81.7,67.9,30.06,North,0,0.0,0.0,63,0.00,,,0.00,WUHU216HW,2013-08-27 03:30:00,
2013-08-26 22:35:00,81.7,67.9,30.06,North,0,0.0,0.0,63,0.00,,,0.00,WUHU216HW,2013-08-27 03:35:00,
2013-08-26 23:00:00,80.8,68.4,30.06,North,0,0.0,0.0,66,0.00,,,0.00,WUHU216HW,2013-08-27 04:00:00,
2013-08-26 23:01:00,80.8,68.4,30.06,North,0,0.0,0.0,66,0.00,,,0.00,WUHU216HW,2013-08-27 04:01:00,
2013-08-26 23:06:00,80.8,68.4,30.06,North,0,0.0,0.0,66,0.00,,,0.00,WUHU216HW,2013-08-27 04:06:00,
2013-08-26 23:30:00,80.1,67.7,30.05,North,0,0.0,0.0,66,0.00,,,0.00,WUHU216HW,2013-08-27 04:30:00,
2013-08-26 23:35:00,80.1,67.7,30.05,North,0,0.0,0.0,66,0.00,,,0.00,WUHU216HW,2013-08-27 04:35:00,